Weather History for KROW - October, 2013

Change the Weather History Date:

Wednesday, October 30, 2013

  Actual Average Record
Temperature  
Mean Temperature 60 °F 56 °F  
Max Temperature 79 °F 71 °F 89 °F (2010)
Min Temperature 40 °F 41 °F 16 °F (1993)
Degree Days  
Heating Degree Days 5 9  
Month to date heating degree days 166 149  
Since 1 July heating degree days 166 165  
Cooling Degree Days 0 0  
Month to date cooling degree days 34 35  
Year to date cooling degree days 2174 1786  
Growing Degree Days 9 (Base 50)    
Moisture  
Dew Point 33 °F    
Average Humidity 41    
Maximum Humidity 62    
Minimum Humidity 19    
Precipitation  
Precipitation 0.00 in 0.04 in 1.79 in (1998)
Month to date precipitation 0.21 1.20  
Year to date precipitation 8.55 11.66  
Sea Level Pressure  
Sea Level Pressure 29.76 in    
Wind  
Wind Speed 14 mph (SW)    
Max Wind Speed 32 mph    
Max Gust Speed 44 mph    
Visibility 10 miles    
Events      
T = Trace of Precipitation, MM = Missing Value Source: NWS Daily Summary

Daily Weather History Graph

Daily Weather History Graph

Search for Another Location

Airport or City:

Trip Planner

Search our weather history database for the weather conditions in past years. The results will help you decide how hot, cold, wet, or windy it might be!

Date:

Astronomy

Oct. 30, 2013 Rise Set
Actual Time 7:15 AM MDT 6:07 PM MDT
Civil Twilight 6:49 AM MDT 6:33 PM MDT
Nautical Twilight 6:20 AM MDT 7:02 PM MDT
Astronomical Twilight 5:51 AM MDT 7:31 PM MDT
Moon 3:18 AM MDT (10/30) 3:44 PM MDT (10/30)
Length of Visible Light 11h 43m
Length of Day
10h 52m
Waning Crescent, 16% of the Moon is Illuminated
Oct 30
Waning Crescent
Nov 3
New
Nov 9
First Quarter
Nov 17
Full
Nov 25
Last Quarter

Hourly Weather History & Observations

Time (MDT) Temp. Windchill Dew Point Humidity Pressure Visibility Wind Dir Wind Speed Gust Speed Precip Events Conditions
12:51 AM 54.0 °F - 26.1 °F 34% 29.79 in 10.0 mi ESE 6.9 mph - N/A   Clear
1:51 AM 51.1 °F - 27.0 °F 39% 29.78 in 10.0 mi South 4.6 mph - N/A   Clear
2:51 AM 48.9 °F - 27.0 °F 43% 29.79 in 10.0 mi SSW 4.6 mph - N/A   Clear
3:51 AM 50.0 °F - 28.9 °F 44% 29.79 in 10.0 mi South 8.1 mph - N/A   Clear
4:51 AM 48.0 °F - 30.0 °F 50% 29.78 in 10.0 mi WSW 4.6 mph - N/A   Clear
5:51 AM 43.0 °F 41.3 °F 30.0 °F 60% 29.82 in 10.0 mi South 3.5 mph - N/A   Clear
6:51 AM 42.1 °F 39.2 °F 30.9 °F 65% 29.82 in 10.0 mi South 4.6 mph - N/A   Clear
7:51 AM 46.0 °F 42.5 °F 34.0 °F 63% 29.84 in 10.0 mi WSW 6.9 mph - N/A   Clear
8:51 AM 57.9 °F - 36.0 °F 44% 29.83 in 10.0 mi WSW 5.8 mph - N/A   Clear
9:51 AM 66.0 °F - 36.0 °F 33% 29.83 in 10.0 mi SW 12.7 mph - N/A   Clear
10:51 AM 73.0 °F - 35.1 °F 25% 29.79 in 10.0 mi SW 21.9 mph 29.9 mph N/A   Clear
11:51 AM 78.1 °F - 35.1 °F 21% 29.75 in 10.0 mi SSW 19.6 mph 26.5 mph N/A   Clear
12:51 PM 77.0 °F - 32.0 °F 19% 29.72 in 10.0 mi SSW 24.2 mph 34.5 mph N/A   Clear
1:51 PM 77.0 °F - 35.1 °F 22% 29.69 in 10.0 mi SSW 27.6 mph 35.7 mph N/A   Clear
2:51 PM 75.9 °F - 32.0 °F 20% 29.67 in 10.0 mi SW 23.0 mph 36.8 mph N/A   Clear
3:51 PM 75.0 °F - 34.0 °F 22% 29.65 in 10.0 mi SW 19.6 mph 28.8 mph N/A   Clear
4:51 PM 73.0 °F - 37.0 °F 27% 29.66 in 10.0 mi SSW 19.6 mph - N/A   Clear
5:51 PM 70.0 °F - 44.1 °F 39% 29.68 in 10.0 mi SSW 15.0 mph - N/A   Mostly Cloudy
6:21 PM 66.2 °F - 39.2 °F 37% 29.80 in 10.0 mi WSW 26.5 mph 38.0 mph N/A   Overcast
6:51 PM 68.0 °F - 37.0 °F 32% 29.70 in 10.0 mi WSW 17.3 mph 27.6 mph N/A   Overcast
7:51 PM 64.9 °F - 36.0 °F 34% 29.71 in 10.0 mi SW 12.7 mph - N/A   Clear
8:51 PM 64.0 °F - 39.0 °F 40% 29.70 in 10.0 mi SSW 16.1 mph - N/A   Clear
9:51 PM 60.1 °F - 39.9 °F 47% 29.71 in 10.0 mi WSW 11.5 mph - N/A   Clear
10:06 PM 59.0 °F - 37.4 °F 45% 29.87 in 10.0 mi NNW 17.3 mph 28.8 mph N/A   Clear
10:51 PM 57.0 °F - 27.0 °F 32% 29.74 in 10.0 mi NW 19.6 mph 26.5 mph N/A   Clear
11:51 PM 55.9 °F - 25.0 °F 30% 29.75 in 10.0 mi NW 16.1 mph 23.0 mph N/A   Clear